Location: Newark
(25.3833°N, 97.4000°E)
Time: 17:53:08
(UTC+00:00)

CAS-4A - Pass Details

Date: 07 March 2020
Orbit: 528 x 545 km, 43.0° (Epoch: 09 April)

Event Time Altitude Azimuth Distance (km) Brightness Sun altitude
Exits shadow 22:28:21 10° 196° (SSW) 1,753 ? -18.5°
Maximum altitude 22:31:47 28° 137° (SE) 1,012 ? -17.7°
Drops below altitude 10° 22:35:17 10° 77° (ENE) 1,773 ? -16.9°
Sets 22:37:44 0° 65° (ENE) 2,661 ? -16.4°
